User: anonymous   Login
Location: Vallejo Observatory
(38.1221°N, 122.2109°W)
Time: 06:32:36
(UTC-07:00)
Language:

MOS 1 Rocket - Orbit

View from above orbital plane
View from above orbital plane
View from above satellite
View from above satellite

Ground track
Ground track

The orbit data is extracted from the following two-line orbital elements,

1 17528U 87018B   17117.93298609 +.00000117 +00000-0 +34651-4 0  9992
2 17528 097.4469 080.6930 0153517 094.7660 302.7158 14.50765471571979
Epoch (UTC): 27 April 2017 22:23:29
Eccentricity: 0.0153517
inclination: 97.4469°
perigee height: 614 km
apogee height: 832 km
right ascension of ascending node: 80.6930°
argument of perigee: 94.7660°
revolutions per day: 14.50765471
mean anomaly at epoch: 302.7158°
orbit number at epoch: 57197

The dashed part of the orbit path shows where the satellite is in the earth's shadow,  

DLR